Biloxi, MS

6:17 AM CDT on September 28, 2016 (GMT -0500)
Keesler Air Force Base

Weather History for KBIX - March, 2015

Change the Weather History Date:

Friday, March 27, 2015

  Actual Average Record
Temperature  
Mean Temperature 60 °F -  
Max Temperature 69 °F 71 °F 81 °F (2011)
Min Temperature 52 °F 52 °F 28 °F (1955)
Degree Days  
Heating Degree Days 4    
Growing Degree Days 10 (Base 50)    
Moisture  
Dew Point 46 °F    
Average Humidity 68    
Maximum Humidity 100    
Minimum Humidity 26    
Precipitation  
Precipitation 0.00 in - - ()
Sea Level Pressure  
Sea Level Pressure 29.96 in    
Wind  
Wind Speed 15 mph (NNW)    
Max Wind Speed 18 mph    
Max Gust Speed 26 mph    
Visibility 10 miles    
Events      
Averages and records for this station are not official NWS values.
T = Trace of Precipitation, MM = Missing Value Source: NWS Daily Summary

Daily Weather History Graph

Daily Weather History Graph

Search for Another Location

Airport or City:

Trip Planner

Search our weather history database for the weather conditions in past years. The results will help you decide how hot, cold, wet, or windy it might be!

Date:

Astronomy

Mar. 27, 2015 Rise Set
Actual Time 6:51 AM CDT 7:11 PM CDT
Civil Twilight 6:27 AM CDT 7:35 PM CDT
Nautical Twilight 5:59 AM CDT 8:03 PM CDT
Astronomical Twilight 5:30 AM CDT 8:32 PM CDT
Moon 12:41 PM CDT (3/27) 1:46 AM CDT (3/27)
Length of Visible Light 13h 08m
Length of Day
12h 20m
First Quarter, 54% of the Moon is Illuminated
Mar 27
First Quarter
Apr 4
Full
Apr 11
Last Quarter
Apr 18
New
Apr 25
First Quarter

Hourly Weather History & Observations

Time (CDT) Temp. Dew Point Humidity Pressure Visibility Wind Dir Wind Speed Gust Speed Precip Events Conditions
12:38 AM 62.6 °F 60.8 °F 94% 29.86 in 10.0 mi NNW 18.4 mph 24.2 mph N/A   Overcast
12:48 AM 60.8 °F 60.8 °F 100% 29.87 in 10.0 mi NNW 17.3 mph - N/A   Overcast
12:53 AM 60.8 °F 60.8 °F 100% 29.87 in 10.0 mi NNW 15.0 mph 20.7 mph N/A   Overcast
12:58 AM 61.0 °F 60.1 °F 97% 29.89 in 10.0 mi NNW 15.0 mph - N/A   Overcast
1:23 AM 59.0 °F 57.2 °F 94% 29.89 in 10.0 mi NNW 15.0 mph 21.9 mph N/A   Overcast
1:33 AM 59.0 °F 57.2 °F 94% 29.89 in 10.0 mi NNW 13.8 mph - N/A   Overcast
1:43 AM 59.0 °F 57.2 °F 94% 29.90 in 10.0 mi NNW 15.0 mph - N/A   Overcast
1:53 AM 59.0 °F 55.4 °F 88% 29.91 in 10.0 mi NNW 11.5 mph 20.7 mph N/A   Overcast
2:58 AM 58.1 °F 54.0 °F 86% 29.89 in 10.0 mi North 12.7 mph - N/A   Overcast
3:13 AM 57.2 °F 53.6 °F 88% 29.88 in 10.0 mi NNW 17.3 mph 26.5 mph N/A   Overcast
3:23 AM 57.2 °F 53.6 °F 88% 29.88 in 10.0 mi North 15.0 mph 25.3 mph N/A   Overcast
3:53 AM 57.2 °F 51.8 °F 82% 29.89 in 10.0 mi North 15.0 mph - N/A   Overcast
3:58 AM 57.0 °F 52.5 °F 85% 29.89 in 10.0 mi NNW 17.3 mph 24.2 mph N/A   Overcast
4:13 AM 55.4 °F 50.0 °F 82% 29.89 in 10.0 mi North 16.1 mph 26.5 mph N/A   Overcast
4:58 AM 54.9 °F 49.5 °F 82% 29.91 in 10.0 mi North 18.4 mph 25.3 mph N/A   Overcast
5:33 AM 53.6 °F 48.2 °F 82% 29.92 in 10.0 mi NNW 18.4 mph 23.0 mph N/A   Overcast
5:56 AM 53.6 °F 48.2 °F 82% 29.93 in 10.0 mi North 17.3 mph 23.0 mph N/A   Overcast
5:58 AM 53.2 °F 48.0 °F 82% 29.94 in 10.0 mi North 15.0 mph 23.0 mph N/A   Overcast
6:58 AM 52.2 °F 46.0 °F 80% 29.98 in 10.0 mi North 18.4 mph - N/A   Overcast
7:58 AM 52.0 °F 45.1 °F 77% 29.98 in 10.0 mi North 13.8 mph - N/A   Overcast
8:48 AM 53.6 °F 44.6 °F 72% 30.00 in 10.0 mi NNW 16.1 mph 21.9 mph N/A   Scattered Clouds
8:58 AM 54.0 °F 45.1 °F 72% 30.01 in 10.0 mi North 11.5 mph 21.9 mph N/A   Scattered Clouds
9:58 AM 56.3 °F 45.9 °F 68% 30.03 in 10.0 mi North 10.4 mph - N/A   Clear
10:58 AM 58.6 °F 40.6 °F 51% 30.03 in 10.0 mi North 15.0 mph - N/A   Clear
11:58 AM 62.6 °F 37.8 °F 40% 30.03 in 10.0 mi NNW 10.4 mph - N/A   Clear
12:58 PM 64.9 °F 32.9 °F 30% 30.02 in 10.0 mi NNW 12.7 mph - N/A   Clear
1:58 PM 66.4 °F 32.4 °F 28% 30.00 in 10.0 mi NNW 12.7 mph - N/A   Clear
2:58 PM 68.5 °F 31.8 °F 26% 29.99 in 10.0 mi NNW 16.1 mph - N/A   Clear
3:58 PM 69.4 °F 34.0 °F 27% 29.98 in 10.0 mi NNW 13.8 mph - N/A   Clear
4:58 PM 69.1 °F 36.0 °F 30% 29.97 in 10.0 mi NNW 15.0 mph 25.3 mph N/A   Clear
5:58 PM 67.3 °F 36.0 °F 32% 29.99 in 10.0 mi NW 12.7 mph - N/A   Clear
6:58 PM 64.8 °F 37.0 °F 36% 30.01 in 10.0 mi North 11.5 mph - N/A   Clear
7:58 PM 61.5 °F 36.7 °F 40% 30.04 in 10.0 mi North 8.1 mph - N/A   Clear
8:58 PM 58.3 °F 37.4 °F 46% 30.08 in 10.0 mi NNE 10.4 mph - N/A   Clear
9:58 PM 56.8 °F 36.5 °F 47% 30.12 in 10.0 mi North 9.2 mph - N/A   Clear
10:58 PM 54.7 °F 36.0 °F 49% 30.14 in 10.0 mi North 10.4 mph - N/A   Clear
11:58 PM 53.4 °F 36.3 °F 52% 30.15 in 10.0 mi NNE 9.2 mph - N/A   Clear